Temp
19 19 18 17 18 18 17 17 17 17 18 21 21 20 19 18 17 16 16 15 15 15 15 14 14 14 14 14 14 14 14 15 15 14 14 14 14 14 14 14 14 14
19 19 18 17 17 18 17 16 16 17 18 20 20 20 19 18 17 17 16 15 15 15 15 15 14 14 14 14 14 14 15 15 15 14 15 15 15 15 15 15 14 14
16 17 17 16 16 17 17 16 15 16 18 19 19 19 18 18 17 17 16 16 15 16 16 15 15 14 14 14 14 15 15 15 15 15 15 15 15 15 15 15 15 15
15 15 16 15 16 17 17 15 15 16 17 18 18 18 17 17 17 17 16 16 16 16 16 16 15 14 14 14 15 15 15 15 15 15 15 15 14 15 15 15 15 15
16 16 15 15 15 16 16 16 15 16 17 17 17 17 17 16 16 16 16 16 16 16 16 16 15 15 14 14 15 16 16 15 15 15 15 15 14 14 15 15 15 15
17 17 16 14 14 15 15 15 15 16 16 16 16 16 16 16 16 16 16 16 16 16 15 15 15 15 15 15 15 16 16 16 15 15 15 15 14 14 14 14 14 14
18 18 16 15 15 14 14 14 15 16 16 16 15 15 16 16 15 15 15 16 16 15 15 15 15 15 15 15 15 16 16 16 15 15 15 15 14 14 14 14 14 14
18 18 17 16 16 14 14 14 14 15 16 16 15 15 15 15 15 15 15 15 15 15 15 15 15 15 15 15 15 16 16 16 16 15 15 15 14 14 14 14 14 15
17 17 17 17 17 15 15 14 14 14 15 15 14 14 15 15 15 15 15 15 15 15 15 15 15 15 15 15 15 15 16 17 16 16 15 15 15 15 15 14 14 15
16 17 17 17 17 17 16 16 15 15 15 15 14 14 15 15 15 15 15 14 15 15 15 15 15 15 15 15 15 15 16 16 17 16 16 15 15 15 15 15 15 15
17 17 17 18 17 16 16 16 17 17 16 16 15 14 15 15 15 15 15 14 14 15 15 15 15 15 15 15 15 15 15 16 17 17 16 16 15 15 15 15 15 15
17 18 18 19 18 17 16 17 17 17 18 17 16 15 14 15 15 15 15 14 14 15 15 15 15 15 15 15 15 15 15 15 16 17 17 16 16 15 15 15 15 15
17 18 18 19 19 18 17 17 17 17 17 17 16 15 14 14 14 14 14 14 14 14 15 15 15 15 15 15 15 15 15 15 15 16 17 17 16 16 15 15 15 15
18 18 18 18 19 18 17 17 17 17 17 16 15 15 14 14 14 14 14 14 14 14 14 15 15 15 15 15 15 15 15 15 15 16 16 17 17 16 16 15 15 15
18 18 18 18 19 18 17 16 16 16 16 16 16 15 14 14 14 14 14 14 14 14 14 14 14 15 15 15 15 15 15 15 15 15 16 16 16 16 16 16 15 15
17 17 17 18 18 18 17 16 16 15 15 15 16 16 16 15 15 14 14 14 14 14 14 14 14 14 15 15 15 15 15 15 15 15 15 16 16 16 16 16 15 15
16 16 17 18 19 18 17 17 16 15 15 15 15 16 16 17 16 16 15 15 15 14 14 14 14 14 14 14 14 14 15 15 15 15 15 16 16 16 16 16 16 15
16 16 17 18 18 18 18 17 16 16 16 15 15 15 15 16 16 16 17 17 16 15 15 14 14 14 14 14 14 14 14 14 14 14 15 15 16 16 16 16 15 15
16 16 17 17 18 18 18 17 17 16 16 16 15 16 16 16 16 16 16 16 16 16 16 16 15 14 14 14 14 14 14 14 14 14 14 14 15 16 15 15 15 15
16 16 17 17 17 17 17 17 16 16 16 16 16 16 16 16 16 16 16 16 16 15 15 16 16 16 15 14 14 14 14 14 14 14 14 14 15 15 15 15 15 15
16 16 16 17 17 16 16 16 15 15 15 16 16 16 16 16 16 16 16 16 16 15 15 15 16 16 16 16 15 14 14 14 14 14 14 14 14 15 15 16 15 15
16 16 16 16 16 16 16 16 16 16 16 16 16 16 15 15 16 16 16 16 16 16 15 15 15 15 17 17 17 16 15 14 14 14 14 14 14 14 15 16 16 15
15 15 16 16 16 16 16 16 16 17 17 16 16 16 15 15 16 16 16 16 16 16 16 16 16 16 17 18 18 18 16 15 14 14 14 14 14 14 15 15 16 16
15 15 16 16 16 16 17 17 17 17 16 16 16 16 16 16 16 17 17 16 16 16 16 17 17 16 17 18 18 18 17 16 15 15 14 14 14 15 15 15 15 16
15 15 15 16 16 16 17 17 17 17 17 16 16 16 16 16 16 16 16 16 16 16 16 16 17 17 16 17 17 17 17 16 15 14 14 14 14 15 15 15 15 15
15 15 15 15 16 17 17 17 17 17 17 16 16 16 16 16 16 16 16 16 16 16 16 16 16 16 17 17 17 17 17 17 15 14 14 15 14 14 14 15 15 15
Height
1475 1477 1479 1481 1484 1486 1489 1492 1495 1498 1499 1498 1499 1500 1502 1505 1508 1510 1512 1515 1518 1521 1523 1526 1528 1531 1534 1536 1537 1539 1541 1543 1544 1546 1548 1550 1551 1552 1554 1556 1557 1559
1471 1473 1475 1477 1480 1483 1484 1487 1491 1494 1496 1497 1497 1499 1501 1503 1506 1508 1510 1513 1516 1518 1521 1523 1526 1528 1531 1532 1534 1536 1538 1539 1541 1543 1545 1546 1548 1549 1550 1552 1554 1556
1469 1471 1472 1473 1476 1478 1480 1483 1487 1491 1494 1495 1496 1497 1499 1501 1504 1507 1509 1511 1514 1516 1518 1521 1523 1525 1528 1529 1531 1533 1534 1536 1537 1539 1541 1542 1544 1545 1547 1549 1551 1552
1466 1471 1472 1472 1474 1475 1477 1481 1484 1488 1491 1491 1493 1495 1496 1499 1502 1505 1507 1510 1512 1513 1515 1518 1520 1522 1524 1526 1528 1529 1531 1533 1534 1536 1537 1539 1540 1542 1544 1546 1547 1549
1464 1471 1473 1473 1473 1474 1475 1477 1481 1485 1488 1489 1492 1493 1494 1496 1499 1503 1505 1507 1509 1511 1512 1515 1517 1519 1521 1523 1524 1526 1528 1529 1531 1532 1534 1535 1537 1539 1541 1543 1544 1546
1460 1465 1469 1471 1473 1474 1474 1475 1478 1482 1484 1486 1489 1491 1492 1494 1497 1500 1503 1505 1507 1508 1510 1512 1514 1516 1518 1520 1521 1523 1524 1526 1527 1529 1530 1532 1534 1536 1538 1540 1541 1543
1456 1458 1464 1469 1472 1473 1474 1475 1477 1479 1482 1483 1486 1488 1490 1492 1495 1498 1501 1503 1505 1506 1508 1509 1511 1513 1515 1517 1518 1520 1521 1523 1525 1526 1528 1529 1531 1533 1535 1537 1539 1540
1454 1456 1460 1465 1469 1472 1474 1475 1475 1477 1479 1480 1483 1486 1488 1490 1493 1496 1499 1501 1503 1504 1505 1507 1508 1510 1512 1514 1516 1517 1518 1520 1522 1524 1525 1527 1529 1531 1532 1534 1536 1538
1453 1455 1458 1461 1466 1471 1474 1475 1475 1475 1476 1478 1480 1484 1487 1489 1491 1494 1496 1499 1500 1502 1503 1505 1506 1508 1510 1511 1513 1514 1516 1517 1519 1521 1523 1525 1526 1528 1530 1532 1534 1535
1449 1451 1455 1459 1462 1466 1468 1470 1472 1474 1475 1476 1479 1481 1484 1487 1489 1491 1493 1496 1497 1499 1500 1502 1504 1505 1507 1508 1510 1511 1513 1514 1516 1518 1520 1522 1524 1526 1528 1530 1531 1533
1445 1447 1452 1456 1458 1460 1461 1464 1467 1470 1472 1474 1476 1479 1481 1483 1485 1487 1490 1491 1493 1495 1497 1499 1501 1502 1503 1505 1507 1509 1510 1512 1514 1515 1518 1520 1521 1523 1525 1527 1529 1530
1442 1443 1447 1451 1452 1454 1457 1461 1464 1465 1467 1469 1472 1475 1477 1479 1481 1483 1485 1487 1490 1492 1494 1496 1497 1499 1500 1501 1504 1506 1507 1509 1511 1512 1514 1517 1518 1520 1522 1524 1526 1528
1439 1441 1443 1444 1446 1450 1454 1457 1461 1462 1464 1466 1469 1471 1474 1476 1477 1479 1481 1484 1486 1489 1490 1492 1494 1495 1496 1498 1500 1502 1504 1506 1508 1509 1511 1513 1515 1516 1518 1520 1523 1525
1435 1438 1439 1439 1440 1445 1450 1454 1458 1460 1461 1464 1466 1468 1471 1473 1474 1476 1478 1481 1483 1485 1487 1489 1491 1492 1493 1494 1496 1499 1501 1503 1505 1507 1508 1510 1511 1513 1515 1517 1519 1521
1431 1433 1434 1435 1435 1439 1446 1451 1454 1457 1459 1460 1462 1465 1467 1470 1472 1474 1476 1478 1481 1483 1485 1486 1487 1488 1490 1491 1493 1495 1497 1499 1501 1503 1505 1507 1509 1510 1512 1514 1516 1518
1427 1428 1430 1431 1431 1435 1442 1448 1451 1454 1456 1457 1458 1459 1462 1465 1469 1472 1474 1476 1478 1480 1482 1483 1484 1485 1486 1488 1490 1492 1494 1496 1498 1500 1502 1504 1506 1508 1509 1511 1513 1514
1423 1425 1427 1428 1429 1433 1439 1444 1447 1450 1452 1455 1456 1457 1458 1460 1464 1468 1471 1474 1476 1478 1481 1482 1482 1483 1484 1486 1488 1490 1492 1494 1496 1497 1499 1501 1503 1505 1506 1508 1510 1511
1420 1422 1424 1426 1428 1432 1437 1441 1444 1446 1448 1451 1453 1455 1457 1458 1460 1463 1466 1469 1472 1475 1478 1481 1481 1481 1483 1484 1486 1488 1490 1492 1494 1495 1496 1498 1500 1502 1503 1505 1507 1509
1417 1419 1421 1423 1426 1430 1434 1437 1440 1442 1444 1447 1449 1452 1454 1456 1459 1461 1463 1465 1467 1469 1472 1475 1477 1479 1481 1482 1483 1486 1488 1490 1492 1493 1494 1495 1497 1499 1500 1502 1504 1505
1413 1416 1418 1421 1424 1427 1431 1433 1435 1438 1440 1443 1445 1447 1449 1452 1455 1458 1460 1462 1464 1465 1467 1470 1472 1475 1478 1480 1481 1482 1484 1486 1488 1490 1491 1492 1494 1495 1497 1498 1500 1501
1411 1413 1416 1418 1421 1424 1426 1428 1431 1434 1437 1439 1441 1443 1445 1448 1450 1452 1455 1457 1460 1462 1464 1465 1467 1469 1473 1476 1478 1479 1480 1481 1484 1486 1488 1489 1490 1491 1492 1494 1496 1497
1409 1411 1414 1416 1418 1420 1422 1425 1427 1430 1433 1435 1437 1439 1441 1443 1445 1448 1450 1453 1455 1457 1459 1460 1463 1465 1467 1471 1473 1474 1475 1477 1480 1482 1484 1485 1486 1487 1488 1490 1492 1493
1407 1409 1411 1413 1415 1417 1419 1421 1424 1426 1429 1431 1433 1434 1436 1438 1440 1443 1445 1447 1449 1451 1453 1455 1457 1459 1462 1464 1466 1467 1469 1473 1476 1478 1479 1480 1482 1483 1484 1486 1487 1489
1404 1406 1408 1410 1412 1414 1416 1418 1420 1423 1425 1427 1428 1430 1432 1434 1436 1438 1440 1442 1444 1446 1449 1451 1452 1454 1457 1459 1460 1461 1464 1467 1471 1473 1474 1475 1477 1478 1480 1481 1482 1484
1402 1404 1406 1407 1409 1411 1412 1414 1416 1419 1421 1422 1424 1426 1428 1430 1432 1434 1435 1437 1439 1442 1444 1445 1447 1449 1452 1454 1456 1457 1459 1461 1465 1468 1469 1470 1472 1474 1475 1476 1477 1479
1399 1401 1402 1404 1406 1408 1409 1411 1412 1415 1416 1418 1420 1422 1424 1426 1428 1429 1431 1432 1434 1437 1438 1439 1441 1443 1446 1449 1451 1452 1454 1456 1459 1462 1464 1466 1468 1469 1471 1472 1473 1475
Wind_Speed
51 51 53 53 51 50 52 51 49 47 42 36 33 33 34 35 35 36 36 34 31 29 29 28 28 28 28 28 28 29 29 30 30 28 27 27 27 27 26 25 23 21
54 54 54 55 53 51 53 53 50 47 43 40 36 33 34 35 34 35 36 34 32 30 29 29 28 27 27 28 28 29 30 30 29 27 25 25 25 26 26 26 24 22
53 54 54 55 54 53 53 52 50 46 44 43 39 35 35 36 35 34 35 34 32 30 29 30 30 28 27 27 28 30 31 31 29 26 25 24 24 25 26 26 25 24
49 49 51 53 54 54 53 51 49 46 45 45 41 36 36 36 35 34 34 34 32 31 31 31 30 29 27 27 28 30 32 31 29 27 26 25 24 24 25 25 25 24
44 44 46 48 51 53 52 51 49 46 46 46 41 38 37 36 36 36 34 34 34 34 34 32 31 29 28 27 28 30 32 32 31 29 28 27 25 25 24 24 24 24
45 46 46 42 42 47 49 49 48 45 46 45 41 39 38 37 37 37 35 34 35 35 35 34 32 30 28 27 28 31 33 33 32 31 30 28 27 26 25 25 24 24
49 48 46 40 36 37 42 46 46 44 45 44 41 39 39 37 37 37 36 35 36 36 36 35 34 32 30 28 28 30 33 34 33 32 31 29 28 27 27 26 26 25
52 49 44 41 37 35 37 41 43 43 43 43 41 39 38 37 36 36 36 36 36 37 37 37 35 33 32 30 29 30 33 35 35 33 32 31 29 29 28 27 27 26
47 46 41 38 38 37 36 38 39 39 41 42 40 38 37 37 36 36 36 37 37 38 38 38 37 35 33 32 30 31 33 36 36 35 33 32 31 31 29 28 28 27
39 39 37 34 36 37 37 39 38 35 37 39 38 37 37 37 37 36 36 37 38 38 39 39 38 36 35 33 32 31 32 35 37 37 35 33 32 31 30 29 28 28
30 33 35 32 31 32 34 39 39 36 37 39 38 38 38 38 38 37 38 38 39 39 38 38 38 37 36 35 33 32 32 34 36 37 37 35 33 31 30 30 29 28
24 25 28 23 20 24 29 34 38 39 40 40 39 38 39 39 39 39 39 40 39 39 38 38 38 38 37 36 34 33 32 33 35 37 37 36 34 32 31 30 29 28
26 23 24 20 17 20 26 32 36 38 39 38 37 37 38 39 40 41 40 40 40 39 38 38 38 38 38 37 36 35 34 33 34 35 37 37 36 34 33 32 30 29
27 24 23 22 20 20 26 33 36 37 37 36 35 35 35 37 39 41 41 39 39 39 39 38 38 38 38 38 37 36 35 35 34 35 37 38 38 36 35 33 31 29
27 27 25 22 21 21 27 34 36 35 35 34 33 33 33 35 38 39 40 40 39 39 39 39 39 39 39 39 38 37 36 36 36 35 36 37 38 37 36 34 32 31
31 31 29 25 23 24 29 33 34 33 34 34 34 32 30 32 35 37 37 38 38 39 40 40 40 40 40 39 38 37 36 37 36 35 35 36 36 36 36 35 33 31
37 35 32 29 26 27 32 35 33 32 34 35 35 33 30 30 32 33 33 33 36 38 40 40 40 40 40 40 39 37 36 36 36 36 35 35 35 36 36 35 34 32
37 36 34 33 31 32 35 36 32 31 33 34 34 33 31 31 31 31 31 32 34 36 37 39 41 41 40 40 39 38 36 35 35 36 35 34 34 35 35 34 33 33
32 33 32 33 33 34 36 35 31 29 30 31 30 29 29 29 30 30 30 32 33 34 35 36 38 41 41 40 39 38 36 35 34 35 36 34 33 34 34 33 32 32
31 32 31 31 32 32 33 33 31 31 29 28 28 28 28 27 27 27 29 30 32 34 35 34 34 36 38 39 39 37 36 35 34 35 35 35 33 32 33 34 32 31
29 30 29 29 29 29 29 29 31 32 31 28 28 29 29 27 26 26 27 28 29 31 34 35 34 32 31 33 36 37 37 37 36 35 35 35 33 31 32 34 33 31
26 27 27 26 26 27 27 28 28 29 28 28 28 29 29 28 27 27 27 28 28 28 31 35 35 32 27 28 33 37 39 40 38 36 35 35 33 31 30 31 31 31
25 26 25 24 24 24 25 25 25 25 25 26 27 28 29 29 28 27 28 29 29 29 30 32 34 33 28 26 29 33 36 40 40 38 36 35 34 32 31 30 29 28
24 24 24 23 24 23 21 21 21 21 22 23 24 26 27 28 28 27 27 29 29 30 30 31 33 33 29 26 28 31 34 37 39 39 38 36 35 34 34 33 30 27
19 21 21 22 22 20 19 19 18 18 18 20 22 24 25 27 28 29 29 29 28 28 29 31 32 30 27 26 28 30 32 35 38 40 39 38 36 36 35 34 32 30
17 19 20 20 20 19 18 18 17 17 18 20 23 24 25 26 28 30 31 31 30 27 28 31 32 27 24 27 30 31 32 34 38 40 40 39 38 38 38 37 34 31
Wind_Direction
232 235 235 235 236 236 234 232 232 232 236 243 243 235 230 225 222 223 225 226 226 229 232 232 232 232 232 232 228 226 227 226 225 225 228 233 236 238 239 240 242 245
228 231 233 233 233 235 234 233 233 235 239 246 247 240 234 229 226 226 227 228 227 229 233 233 232 231 231 230 225 223 223 221 219 221 225 230 234 236 238 240 243 246
227 228 231 231 230 232 233 233 233 235 241 246 245 241 238 234 230 229 230 230 229 230 234 235 232 231 231 229 224 221 221 218 216 218 223 228 232 235 237 239 243 246
226 226 231 231 231 232 233 233 234 236 240 244 244 241 240 237 234 233 233 233 231 230 232 234 233 231 231 230 225 221 221 219 217 218 222 227 231 234 235 237 240 243
232 231 234 234 231 232 233 233 234 236 240 242 243 242 241 240 237 235 235 234 232 232 231 232 233 232 231 230 226 222 221 220 218 218 222 226 230 232 233 234 237 240
238 237 238 239 234 230 231 233 233 236 241 242 240 240 241 242 240 237 236 236 235 234 233 232 232 231 231 231 227 222 221 222 220 220 222 225 228 231 232 233 236 239
236 236 236 241 242 237 234 234 233 234 239 243 241 240 241 242 242 240 238 238 238 237 236 234 234 233 231 231 230 225 222 223 223 223 223 225 228 230 232 234 237 240
236 236 238 245 251 248 239 237 235 233 237 242 243 242 243 244 245 245 242 241 241 241 239 238 237 236 234 233 233 230 225 225 225 225 226 227 229 231 232 234 237 239
233 235 241 247 250 249 244 239 236 235 238 242 244 245 246 248 249 248 246 244 243 243 242 241 240 239 238 236 235 234 230 228 227 227 228 229 231 232 233 235 237 239
232 235 239 243 247 249 247 241 237 237 241 245 247 249 250 251 252 251 249 247 245 244 243 242 241 241 240 239 238 237 235 233 230 230 230 231 233 234 235 236 237 239
233 234 233 239 248 245 240 241 242 243 246 249 250 251 251 251 251 251 250 248 246 246 245 243 242 241 241 241 240 239 238 237 235 233 232 233 234 236 237 238 238 240
223 218 216 224 239 234 231 240 246 246 247 250 250 250 250 251 251 251 250 248 248 247 246 245 243 242 243 243 242 240 239 240 239 236 234 234 235 236 239 240 239 240
220 214 209 209 221 229 233 241 247 247 246 248 250 249 249 250 251 251 250 250 250 249 248 246 244 243 244 244 244 243 241 240 241 240 236 235 236 237 239 241 241 242
217 219 216 211 215 227 236 241 246 248 246 246 248 250 252 254 254 253 252 251 251 251 250 248 246 245 245 245 245 244 243 242 241 241 239 236 237 239 240 242 242 243
213 220 221 214 214 223 235 241 244 247 248 246 246 248 252 254 255 255 254 253 253 252 251 249 248 247 247 246 245 244 244 244 243 242 241 238 238 239 241 243 244 245
223 226 224 219 218 224 234 239 240 242 243 243 244 247 250 251 250 249 249 251 253 254 252 250 250 251 250 249 248 247 247 246 245 244 242 240 239 239 241 244 245 246
233 233 226 219 221 228 237 242 242 241 242 243 245 247 250 251 248 245 247 254 258 257 255 254 254 255 254 253 251 250 250 249 248 246 245 243 241 241 242 244 245 247
235 234 228 220 220 227 237 245 247 245 246 247 247 246 248 249 246 245 249 254 258 258 258 260 261 259 257 257 256 253 252 252 251 250 248 246 244 243 243 244 246 248
238 237 234 230 229 233 239 244 247 245 246 247 245 244 246 246 246 247 250 250 252 254 256 261 265 264 260 259 258 256 255 254 254 252 251 248 246 245 245 245 246 248
239 239 238 237 237 238 241 244 244 243 245 247 244 240 239 243 245 247 249 251 253 255 254 255 261 265 265 262 259 256 254 254 255 254 253 250 248 246 245 244 244 247
237 238 238 236 235 237 239 241 241 242 244 247 247 244 242 244 245 244 246 248 250 253 254 254 255 259 264 269 268 264 260 257 255 253 252 251 249 246 246 245 243 244
234 235 235 233 234 235 236 238 240 242 246 249 250 247 244 243 245 246 248 248 247 248 251 253 252 250 254 267 274 271 265 260 254 250 249 250 248 245 244 245 245 243
236 235 234 233 233 235 236 237 240 242 246 249 249 247 244 243 246 249 251 250 247 246 248 252 251 247 248 259 264 262 262 261 255 249 247 248 246 243 242 243 243 243
233 233 232 231 230 229 229 232 236 239 242 246 249 249 249 249 250 251 251 251 249 249 251 254 252 248 247 252 253 250 254 258 254 247 244 245 244 242 241 241 239 238
230 230 230 229 227 224 222 223 227 231 237 244 249 251 252 253 253 251 250 250 251 252 253 251 249 246 244 246 246 244 248 255 252 244 241 244 244 242 241 241 239 236
227 228 229 228 225 222 219 220 223 229 236 242 247 249 250 252 252 251 249 249 250 251 251 247 240 234 234 239 240 238 241 249 252 249 246 245 246 245 243 243 241 238